[[{"header":{"parameterUnit":"m.s-1","parameterCategory":1,"la1":30.2991,"la2":30.254,"lo1":-89.0895,"lo2":-89.0444,"dy":0.0017,"dx":0.0017,"nx":28,"ny":28,"refTime":"2023-04-28T21:00:00:Z","depth":0,"parameterNumber":2,"parameterNumberName":"U-component_of_WINDS"},"data":[0,0,0,0,0,0,0,0,0,0,0,0,0,0,0,0,0,0,0,0,0,0,0,0,0,0,0,0,0,0,0,0,0,0,0,0,0,0,0,0,0,0,0,0,0,0,0,0,0,0,0,0,0,0,0,0,0,0,0.715,0.715,0,0.7093,0.7092,0.7091,0.7071,0.7072,0.7072,0.7072,0.7006,0.7004,0.7002,0,0,0,0,0,0,0,0,0,0,0,0,0,0.7236,0.7234,0.715,0.715,0.7149,0.7093,0.7092,0.7091,0.7071,0.7072,0.7072,0.7072,0.7006,0.7004,0.7001,0,0,0,0,0,0,0,0,0,0,0,0,0,0.719,0.7234,0.715,0.7133,0.713,0.7093,0.7092,0.7091,0.7071,0.7072,0.7072,0.7072,0.7007,0.7004,0.7001,0.6975,0,0,0.6992,0.6991,0,0,0,0,0,0,0,0,0.7193,0.7187,0.7136,0.7134,0.7131,0.709,0.7097,0.7052,0.7071,0.7094,0.7072,0.7073,0.7033,0.7028,0.7016,0.6972,0.6969,0.6992,0.699,0.6988,0.6988,0,0,0,0,0,0,0,0.7196,0.7189,0.7127,0.7135,0.7132,0.7125,0.7119,0.7089,0.7061,0.7092,0.709,0.7084,0.7031,0.7019,0.7014,0.6968,0.6992,0.6989,0.6987,0.6986,0.6896,0.6895,0,0,0,0,0,0,0.7203,0.7192,0.7129,0.7126,0.7164,0.7123,0.7116,0.7103,0.7062,0.7056,0.7084,0.7083,0.7024,0.7018,0.7012,0.6976,0.6989,0.6986,0.6984,0.6897,0.6896,0.6895,0,0,0,0,0,0,0.7205,0.7198,0.7131,0.7158,0.7149,0.7121,0.7106,0.7101,0.7089,0.7056,0.705,0.7076,0.7024,0.7016,0.6984,0.6974,0.6984,0.6982,0.6897,0.6896,0.6895,0.6907,0,0,0,0,0,0,0.7208,0.7199,0.719,0.7158,0.7148,0.7108,0.7105,0.71,0.7084,0.7083,0.7047,0.7042,0.7023,0.6989,0.6981,0.697,0.6979,0.6898,0.6897,0.6896,0.6907,0.6906,0.6906,0,0,0,0,0,0.7211,0.7195,0.719,0.7183,0.7138,0.7107,0.7101,0.7082,0.7084,0.7074,0.7052,0.7043,0.6976,0.6986,0.6977,0.6964,0.6898,0.6897,0.6896,0.6907,0.6907,0.6906,0,0,0,0,0,0,0.7224,0.7191,0.7185,0.7159,0.7136,0.7104,0.7091,0.7082,0.7057,0.7057,0.7032,0.7024,0.6994,0.6976,0.6987,0.6935,0.6937,0.6933,0.6948,0.6947,0.6947,0.6951,0.6977,0,0,0,0,0,0.7225,0.7205,0.7176,0.7155,0.7144,0.712,0.7106,0.7093,0.7068,0.7058,0.7034,0.7007,0.698,0.6963,0.6936,0.6905,0.6894,0.6891,0.6891,0.689,0.6887,0.6866,0.6864,0.6891,0.6891,0.6891,0,0,0.7225,0.7204,0.7193,0.7157,0.7139,0.7116,0.7112,0.7089,0.7071,0.7053,0.7022,0.7003,0.6972,0.694,0.6924,0.6924,0.6878,0.6889,0.6889,0.6886,0.6865,0.6862,0.686,0.689,0.689,0.689,0,0,0.7213,0.7196,0.7177,0.7158,0.713,0.7113,0.7108,0.7077,0.7064,0.7033,0.7019,0.6996,0.695,0.6928,0.691,0.6888,0.6877,0.688,0.6875,0.6855,0.6853,0.6851,0.684,0.6837,0.6877,0.6877,0.6877,0,0.7216,0.7184,0.7167,0.7144,0.7128,0.7113,0.7091,0.7073,0.7036,0.7024,0.7025,0.6966,0.6944,0.6905,0.6899,0.6886,0.6877,0.6883,0.6855,0.6853,0.685,0.684,0.6836,0.6877,0.6877,0.6877,0.6877,0,0.7187,0.7165,0.7152,0.712,0.7102,0.7079,0.7056,0.704,0.7028,0.701,0.6977,0.695,0.6916,0.6906,0.6894,0.6864,0.6864,0.686,0.6861,0.6849,0.6838,0.6834,0.6878,0.6878,0.6878,0.6878,0,0,0.7183,0.7141,0.7136,0.712,0.7087,0.7068,0.7044,0.7013,0.6998,0.6973,0.695,0.6911,0.6906,0.6886,0.6872,0.6854,0.6835,0.6851,0.685,0.6847,0.6796,0.6798,0.6794,0.6828,0.6827,0.6826,0.6798,0,0.7166,0.7125,0.7108,0.7073,0.705,0.7035,0.7013,0.6988,0.6971,0.6946,0.6925,0.6898,0.6895,0.6883,0.6865,0.6841,0.6824,0.6843,0.6802,0.6801,0.681,0.6789,0.6792,0.6767,0.6794,0.6793,0.6793,0,0.7141,0.7117,0.7081,0.7049,0.7038,0.702,0.6989,0.6967,0.6937,0.6925,0.6902,0.6888,0.6858,0.6861,0.6818,0.6831,0.6813,0.6798,0.6797,0.6791,0.6796,0.6781,0.6759,0.6754,0.6787,0.6787,0.6788,0,0.714,0.7098,0.7071,0.7057,0.702,0.7006,0.6989,0.696,0.6942,0.6914,0.6901,0.6869,0.6851,0.6825,0.6801,0.6806,0.6758,0.676,0.6745,0.6745,0.6734,0.6735,0.6707,0.6726,0.6726,0.6726,0.6726,0,0.7122,0.7099,0.7069,0.7052,0.7025,0.7004,0.6977,0.6959,0.6933,0.6909,0.6893,0.687,0.6841,0.6814,0.6794,0.6759,0.6751,0.6738,0.6733,0.6739,0.674,0.6726,0.6726,0.6725,0.6725,0.6725,0.6726,0,0.7115,0.7095,0.7063,0.703,0.7021,0.7002,0.6972,0.6953,0.6934,0.6904,0.6896,0.6865,0.6831,0.6805,0.6761,0.6748,0.671,0.6705,0.6721,0.6718,0.6703,0.6704,0.6663,0.6655,0.6681,0.6681,0.6681,0,0.7105,0.7088,0.7052,0.7037,0.702,0.6995,0.6976,0.6954,0.6934,0.6898,0.6882,0.6848,0.682,0.6767,0.6738,0.6703,0.6696,0.6684,0.6691,0.6696,0.6693,0.6694,0.669,0.6683,0.6683,0.6683,0.6683,0,0.7088,0.7078,0.7053,0.7024,0.7003,0.6978,0.6953,0.694,0.6912,0.6891,0.6858,0.6836,0.6791,0.6756,0.6718,0.6696,0.6683,0.6681,0.6675,0.668,0.6689,0.6681,0.6717,0.6682,0.6682,0.6682,0.6682,0.6682,0.7078,0.7061,0.7033,0.7005,0.6984,0.696,0.694,0.6918,0.6891,0.6855,0.6842,0.6807,0.6774,0.6722,0.67,0.667,0.6669,0.6661,0.6658,0.6656,0.6656,0.6695,0.6663,0.6663,0.6663,0.6663,0.6663,0,0.7058,0.7039,0.7014,0.6979,0.6956,0.6949,0.692,0.69,0.687,0.6842,0.6815,0.6774,0.674,0.6708,0.6671,0.6652,0.6645,0.6643,0.6643,0.6638,0.666,0.6668,0.6649,0.6649,0.6649,0.6649,0.6649,0.6649,0.7045,0.7015,0.7001,0.6959,0.6939,0.6907,0.689,0.6867,0.6844,0.6801,0.6773,0.6753,0.6722,0.6682,0.6648,0.664,0.6625,0.6624,0.6614,0.6635,0.6637,0.6638,0.6645,0.6622,0.6622,0.6593,0.6593,0.6593]},{"header":{"parameterUnit":"m.s-1","parameterCategory":1,"la1":30.2991,"la2":30.254,"lo1":-89.0895,"lo2":-89.0444,"dy":0.0017,"dx":0.0017,"nx":28,"ny":28,"refTime":"2023-04-28T21:00:00:Z","depth":0,"parameterNumber":3,"parameterNumberName":"V-component_of_WINDS"},"data":[0,0,0,0,0,0,0,0,0,0,0,0,0,0,0,0,0,0,0,0,0,0,0,0,0,0,0,0,0,0,0,0,0,0,0,0,0,0,0,0,0,0,0,0,0,0,0,0,0,0,0,0,0,0,0,0,0,0,-2.9347,-2.9349,0,-2.9541,-2.9543,-2.9545,-2.9613,-2.9612,-2.9612,-2.9611,-2.9807,-2.9812,-2.9818,0,0,0,0,0,0,0,0,0,0,0,0,0,-2.9034,-2.904,-2.9347,-2.9349,-2.9352,-2.954,-2.9543,-2.9546,-2.9613,-2.9612,-2.9611,-2.9611,-2.9805,-2.9812,-2.9819,0,0,0,0,0,0,0,0,0,0,0,0,0,-2.9193,-2.9041,-2.9347,-2.9408,-2.9416,-2.954,-2.9543,-2.9546,-2.9613,-2.9612,-2.9611,-2.961,-2.9802,-2.9811,-2.982,-2.9896,0,0,-2.9846,-2.985,0,0,0,0,0,0,0,0,-2.9184,-2.9204,-2.9397,-2.9404,-2.9413,-2.9552,-2.9505,-2.9663,-2.9614,-2.9538,-2.9611,-2.961,-2.9722,-2.9738,-2.9776,-2.9905,-2.9913,-2.9847,-2.9853,-2.9856,-2.9859,0,0,0,0,0,0,0,-2.9173,-2.9196,-2.9424,-2.9399,-2.9409,-2.9426,-2.9447,-2.9535,-2.9634,-2.9545,-2.955,-2.9572,-2.9727,-2.9768,-2.9781,-2.9916,-2.9847,-2.9855,-2.986,-2.9864,-3.012,-3.0121,0,0,0,0,0,0,-2.9152,-2.9187,-2.9417,-2.9429,-2.9293,-2.9432,-2.9456,-2.9508,-2.9633,-2.9651,-2.9573,-2.9575,-2.9753,-2.9771,-2.9789,-2.9889,-2.9856,-2.9865,-2.987,-3.0119,-3.012,-3.0122,0,0,0,0,0,0,-2.9145,-2.9172,-2.941,-2.931,-2.9341,-2.9439,-2.9497,-2.9513,-2.9554,-2.9655,-2.9672,-2.9597,-2.9753,-2.9776,-2.987,-2.9896,-2.9869,-2.9877,-3.0117,-3.0119,-3.0121,-3.0088,0,0,0,0,0,0,-2.9136,-2.9169,-2.9199,-2.931,-2.9346,-2.9488,-2.9498,-2.9517,-2.9569,-2.9573,-2.9682,-2.9699,-2.9754,-2.9856,-2.9878,-2.9908,-2.9884,-3.0115,-3.0118,-3.012,-3.0087,-3.0088,-3.009,0,0,0,0,0,-2.9124,-2.918,-2.92,-2.9228,-2.9386,-2.9489,-2.951,-2.9573,-2.9571,-2.9602,-2.9667,-2.9695,-2.9889,-2.9865,-2.9891,-2.9923,-3.0113,-3.0117,-3.012,-3.0086,-3.0088,-3.009,0,0,0,0,0,0,-2.9068,-2.9196,-2.9219,-2.9313,-2.939,-2.95,-2.9542,-2.9573,-2.9651,-2.9651,-2.9725,-2.9749,-2.9837,-2.9889,-2.986,-3.0005,-3.0003,-3.0012,-2.9968,-2.9971,-2.9973,-2.9959,-2.9891,0,0,0,0,0,-2.9067,-2.9141,-2.9248,-2.932,-2.9358,-2.9443,-2.949,-2.9532,-2.9614,-2.9647,-2.9718,-2.9796,-2.9876,-2.9926,-3.0004,-3.0094,-3.012,-3.0129,-3.0131,-3.0132,-3.0139,-3.0194,-3.02,-3.0133,-3.0133,-3.0133,0,0,-2.9065,-2.9144,-2.9185,-2.9311,-2.9376,-2.945,-2.947,-2.9547,-2.9603,-2.9658,-2.9752,-2.9807,-2.9899,-2.9992,-3.0037,-3.0038,-3.0163,-3.0136,-3.0136,-3.0143,-3.0198,-3.0204,-3.0209,-3.0136,-3.0135,-3.0135,0,0,-2.91,-2.9166,-2.9236,-2.9301,-2.9399,-2.9455,-2.9471,-2.9578,-2.9617,-2.9713,-2.9756,-2.9824,-2.9957,-3.0022,-3.0072,-3.0134,-3.0164,-3.0157,-3.0166,-3.0218,-3.0223,-3.0229,-3.0253,-3.0261,-3.0163,-3.0163,-3.0163,0,-2.9085,-2.92,-2.9267,-2.9344,-2.9398,-2.9453,-2.9524,-2.9583,-2.9701,-2.9737,-2.9737,-2.9909,-2.9974,-3.0084,-3.01,-3.0138,-3.016,-3.0146,-3.0217,-3.0223,-3.0229,-3.0253,-3.0262,-3.0162,-3.0162,-3.0162,-3.0163,0,-2.9178,-2.9257,-2.9301,-2.9416,-2.9476,-2.9549,-2.9627,-2.9679,-2.9716,-2.9772,-2.987,-2.9951,-3.0047,-3.0076,-3.0112,-3.0192,-3.0191,-3.0203,-3.0203,-3.0233,-3.0257,-3.0267,-3.016,-3.0161,-3.0161,-3.0162,0,0,-2.9184,-2.9336,-2.9352,-2.9406,-2.9519,-2.9581,-2.9657,-2.9753,-2.9797,-2.9876,-2.9943,-3.0056,-3.0069,-3.0126,-3.017,-3.0215,-3.0263,-3.0223,-3.0226,-3.023,-3.0359,-3.0351,-3.0361,-3.0282,-3.0284,-3.0285,-3.0352,0,-2.9236,-2.9376,-2.9439,-2.9551,-2.9626,-2.9679,-2.9746,-2.9822,-2.9877,-2.9948,-3.0008,-3.0089,-3.0098,-3.0134,-3.0181,-3.0247,-3.029,-3.0242,-3.0346,-3.0349,-3.0324,-3.0373,-3.0364,-3.0424,-3.0362,-3.0364,-3.0365,0,-2.9316,-2.9398,-2.9517,-2.9624,-2.9658,-2.9716,-2.9811,-2.9878,-2.9966,-3.0003,-3.0068,-3.011,-3.0193,-3.0185,-3.0301,-3.0267,-3.0313,-3.0352,-3.0356,-3.037,-3.036,-3.0391,-3.0444,-3.0453,-3.038,-3.0379,-3.0377,0,-2.9311,-2.9451,-2.9542,-2.9586,-2.9711,-2.9752,-2.9806,-2.9893,-2.9948,-3.003,-3.0066,-3.0155,-3.0205,-3.0274,-3.034,-3.0328,-3.045,-3.0447,-3.0484,-3.0483,-3.0509,-3.0507,-3.0573,-3.0534,-3.0534,-3.0534,-3.0533,0,-2.9364,-2.9436,-2.9542,-2.9598,-2.968,-2.9752,-2.9831,-2.9889,-2.9966,-3.0035,-3.0085,-3.0148,-3.023,-3.0303,-3.0355,-3.0444,-3.0465,-3.0498,-3.0512,-3.0496,-3.0492,-3.0528,-3.0527,-3.0536,-3.0535,-3.0535,-3.0535,0,-2.9374,-2.9448,-2.9551,-2.9662,-2.9692,-2.9748,-2.9843,-2.99,-2.9957,-3.0043,-3.0067,-3.0158,-3.0247,-3.0319,-3.0435,-3.047,-3.0565,-3.0578,-3.0535,-3.0543,-3.0577,-3.0574,-3.067,-3.0688,-3.0634,-3.0635,-3.0635,0,-2.9405,-2.9462,-2.958,-2.963,-2.9684,-2.9763,-2.982,-2.9893,-2.9949,-3.0055,-3.0099,-3.0193,-3.0271,-3.0411,-3.0487,-3.0577,-3.0595,-3.0622,-3.0608,-3.0591,-3.0599,-3.0596,-3.0603,-3.0624,-3.0625,-3.0625,-3.0625,0,-2.9451,-2.9486,-2.9566,-2.966,-2.9727,-2.9803,-2.9881,-2.9919,-3.0006,-3.0067,-3.016,-3.0221,-3.0341,-3.0434,-3.0532,-3.0587,-3.0621,-3.0629,-3.0643,-3.0628,-3.0602,-3.062,-3.0542,-3.0626,-3.0626,-3.0626,-3.0626,-3.0626,-2.9475,-2.9529,-2.9622,-2.971,-2.9777,-2.9849,-2.9909,-2.9975,-3.0054,-3.0158,-3.0196,-3.0291,-3.038,-3.0515,-3.0571,-3.0648,-3.0651,-3.067,-3.0675,-3.068,-3.0679,-3.0588,-3.0665,-3.0665,-3.0665,-3.0665,-3.0665,0,-2.9527,-2.9589,-2.967,-2.9779,-2.9849,-2.9875,-2.9963,-3.002,-3.0104,-3.0184,-3.0262,-3.0369,-3.046,-3.0543,-3.0638,-3.0683,-3.0701,-3.0706,-3.0704,-3.0717,-3.067,-3.065,-3.069,-3.069,-3.069,-3.0689,-3.0689,-3.0689,-2.9562,-2.9657,-2.9702,-2.983,-2.9892,-2.9988,-3.0037,-3.0104,-3.0169,-3.0287,-3.0363,-3.0417,-3.05,-3.0601,-3.0686,-3.0708,-3.0741,-3.0742,-3.0769,-3.0723,-3.072,-3.0717,-3.0699,-3.0748,-3.0748,-3.0811,-3.0811,-3.0812]}]]